Location: Trois-Rivi�res
(46.3500°N, 72.5500°W)
Time: 09:43:26
(UTC-04:00)

Tiangong 2 - Visible Passes

Search period start: 23 October 2017 00:00
Search period end: 02 November 2017 00:00
Orbit: 388 x 391 km, 42.8° (Epoch: 23 October)

Date Brightness Start Highest point End Pass type
(mag) Time Alt. Az. Time Alt. Az. Time Alt. Az.
30 Oct 3.6 19:01:03 10° SSE 19:01:30 10° SSE 19:01:30 10° SSE visible
31 Oct 3.3 19:37:23 10° SW 19:38:41 18° SSW 19:38:41 18° SSW visible
01 Nov 3.2 18:40:03 10° SSW 18:42:10 17° SSE 18:43:28 14° SE visible
01 Nov 4.3 20:15:32 10° WSW 20:15:47 12° WSW 20:15:47 12° WSW visible
